Regional Weather Roundup
Issued by NWS Upton, NY

Current Version | Previous Version | Text Only | Print | Product List | Glossary Off
Versions: 1 2 3 4 5 6 7 8 9 10 11 12 13 14 15 16 17 18 19 20 21 22 23 24 25 26 27 28 29 30 31 32 33 34 35 36 37 38 39 40 41 42 43 44 45 46 47 48 49 50
853 ASUS41 KOKX 172108 RWROKX REGIONAL WEATHER ROUNDUP NATIONAL WEATHER SERVICE NEW YORK NY 400 PM EST TUE JAN 17 2017 NOTE: "FAIR" INDICATES FEW OR NO CLOUDS BELOW 12,000 FEET WITH NO SIGNIFICANT WEATHER AND/OR OBSTRUCTIONS TO VISIBILITY. NYZ071-072-176-178-NJZ106-104-172200- NEW YORK CITY METRO AREA CITY SKY/WX TMP DP RH WIND PRES REMARKS Central Park CLOUDY 40 37 89 E7 30.11S FOG Wall St Helipt CLOUDY 40 37 89 E6 30.10S Bronx Bot Gard NOT AVBL LaGuardia APRT CLOUDY 41 36 82 E7 30.10S HAZE Kennedy INTL CLOUDY 40 35 83 E7 30.11F Breezy Point N/A 37 N/A N/A E8 N/A WCI 31 Newark/Liberty CLOUDY 40 36 86 E6 30.09F FOG Teterboro LGT RAIN 40 37 89 E5 30.09F FOG $$ NYZ177-179-078>081-172200- LONG ISLAND NEW YORK CITY SKY/WX TMP DP RH WIND PRES REMARKS Jones Beach N/A 37 N/A N/A E10 N/A WCI 30 Matinecock PT NOT AVBL Farmingdale LGT RAIN 38 36 92 E8 30.10F FOG WCI 32 MacArthur/ISP LGT RAIN 38 36 92 E6 30.11F FOG WCI 33 Shirley CLOUDY 38 37 97 CALM 30.14S FOG Westhampton LGT RAIN 39 36 89 NE3 30.15S FOG Southampton NOT AVBL Bridgehampton NOT AVBL East Hampton RAIN 37 33 83 E3 30.14S Montauk N/A 40 32 73 E6 30.16F $$ NYZ052-065-067-172200- HUDSON VALLEY CITY SKY/WX TMP DP RH WIND PRES REMARKS White Plains LGT RAIN 36 33 89 E9 30.08F FOG WCI 29 Newburgh LGT RAIN 36 34 93 E9 30.10F FOG WCI 29 Montgomery LGT RAIN 35 33 92 N6 30.08F FOG WCI 30 Poughkeepsie CLOUDY 35 34 96 NE3 30.10F FOG Albany FRZ RAIN 32 28 85 NE3 30.12S FOG $$ NJZ001-105-106-008-010-013-015-019>022-104-172200- NEW JERSEY CITY SKY/WX TMP DP RH WIND PRES REMARKS Newark/Liberty CLOUDY 40 36 86 E6 30.09F FOG Teterboro LGT RAIN 40 37 89 E5 30.09F FOG Caldwell CLOUDY 38 36 92 E5 30.10S FOG WCI 34 Somerville CLOUDY 39 35 86 CALM 30.06F FOG Linden CLOUDY 39 35 86 SE6 30.09S HAZE Sussex LGT RAIN 35 34 96 CALM 30.06S FOG Andover N/A 36 35 96 CALM 30.06S Trenton CLOUDY 43 37 79 E8 30.05F Millville CLOUDY 45 45 100 VRB7 30.05F FOG Atlantic City CLOUDY 44 41 89 SE8 30.07F Wrightstown LGT RAIN 44 40 84 SE7 30.04F Toms River CLOUDY 43 39 86 SE10 30.09S Belmar CLOUDY 42 38 85 SE8 30.10S $$ PAZ047>061-062-071-172200- EASTERN PENNSYLVANIA CITY SKY/WX TMP DP RH WIND PRES REMARKS Philadelphia LGT RAIN 45 41 86 E5 30.04F FOG Allentown LGT RAIN 38 33 82 E6 30.04F WCI 33 Scranton LGT RAIN 38 37 97 NE6 29.99R FOG WCI 33 $$ CTZ002-004>006-009-010-012-RIZ004-006-007-MAZ004-011-015-172200- SOUTHERN NEW ENGLAND IN CT CITY SKY/WX TMP DP RH WIND PRES REMARKS Bradley INTL CLOUDY 37 28 70 NE5 30.14F WCI 33 Hartford LGT RAIN 37 31 78 N5 30.14F WCI 33 Danbury LGT RAIN 35 29 78 E7 30.11F WCI 29 Wtrbury/Oxford LGT RAIN 36 28 75 SE5 30.12S FOG WCI 32 Bridgeport LGT RAIN 39 31 72 E14 30.14R WCI 31 Meriden CLOUDY 39 32 76 CALM 30.14F New Haven LGT RAIN 38 30 73 E7 30.14S WCI 33 Chester LGT RAIN 37 30 75 CALM 30.13S Groton LGT RAIN 40 29 64 E9 30.15F WCI 34 Wilimantic LGT RAIN 43 22 43 E3 30.15F IN RI CITY SKY/WX TMP DP RH WIND PRES REMARKS Providence CLOUDY 42 29 59 E7 30.17S Block Island NOT AVBL Westerly LGT RAIN 41 21 44 NE6 30.17S IN MA CITY SKY/WX TMP DP RH WIND PRES REMARKS Boston CLOUDY 41 32 70 E9 30.19S Worcester LGT RAIN 36 26 67 E6 30.14R WCI 31 Westfield CLOUDY 35 29 78 NE3 30.13F Provincetown CLOUDY 42 32 67 E7 30.19S Nantucket CLOUDY 41 31 67 NE5 30.17R $$ ANZ330-335-338-340-345-350-353-355-172200- COASTAL MARINE OBSERVATIONS STATION/POSITION TIME SKY/WX TEMP WIND PRES VSBY WAVE AIR SEA DIR/SP/G HT/PER (UTC) (F) (DEG/KT/KT) (MB) (MI) (FT/S) NY HARB ENTRANCE 1950 43 44 130/ 8/ 8 1020.0 1/11 20 S FIRE ISLAND 1950 42 45 110/ 6/ 8 1020.3 1/10 GREAT SOUTH BAY NOT AVBL 23 SSW MONTAUK P 1950 43 48 110/ 8/ 12 1021.3 1/10 15 E BARNEGAT LI 2030 44 N/A 1/10 HUDSON CANYON 1950 47 53 1020.4 2/ 8 KINGS POINT 2042 38 38 1019.0 EXECUTION ROCKS 2045 38 50/ 10/ 14 N/A CENTRAL LI SOUND 2015 40 90/ 14/ 16 N/A 1 EASTERN LI SOUND NOT AVBL ROBBINS REEF 2042 39 90/ 8/ 9 1019.3 $$ >>>>>>>>>>>>>>>>>>>>>>>>>>>> KEY <<<<<<<<<<<<<<<<<<<<<<<<<<< > < > SKY/WX - Sky Condition/Present Weather < > TMP - Temperature in Fahrenheit < > DP - Dew Point in Fahrenheit < > RH - Relative Humidity in Percent < > WIND - Direction (from) and Speed in MPH < > PRES - Mean Sea Level Pressure (inches of Hg) < > WCI - Wind Chill Index < > VSB - VISIBILITY IN MILES < > HX - HEAT INDEX < > TC - TEMPERATURE IN CELSIUS < > VRB - VARIABLE WIND DIRECTION < > < >>>>>>>>>>>>>>>>>>>>>>>>>>>> KEY <<<<<<<<<<<<<<<<<<<<<<<<<<<

USA.gov is the U.S. government's official web portal to all federal, state and local government web resources and services.